Weather History for Hoonah, AK

Change the Weather History Date:

Tuesday, August 20, 2013

  Actual Average Record
Temperature  
Mean Temperature 54 °F -  
Max Temperature 61 °F 60 °F 73 °F (2008)
Min Temperature 48 °F 48 °F 41 °F (2014)
Degree Days  
Heating Degree Days 10    
Growing Degree Days 4 (Base 50)    
Moisture  
Dew Point 53 °F    
Average Humidity 92    
Maximum Humidity 100    
Minimum Humidity 75    
Precipitation  
Precipitation 0.01 in - - ()
Sea Level Pressure  
Sea Level Pressure 30.08 in    
Wind  
Wind Speed 1 mph (ESE)    
Max Wind Speed 7 mph    
Max Gust Speed -    
Visibility 10 miles    
Events      
Averages and records for this station are not official NWS values.
T = Trace of Precipitation, MM = Missing Value Source: NWS Daily Summary

Daily Weather History Graph

Daily Weather History Graph

Search for Another Location

Airport:

Trip Planner

Search our weather history database for the weather conditions in past years. The results will help you decide how hot, cold, wet, or windy it might be!

Date:

Astronomy

Aug. 20, 2013 Rise Set
Actual Time 5:36 AM AKDT 8:32 PM AKDT
Civil Twilight 4:51 AM AKDT 9:17 PM AKDT
Nautical Twilight 3:49 AM AKDT 10:17 PM AKDT
Astronomical Twilight 2:18 AM AKDT 11:45 PM AKDT
Moon 7:51 PM AKDT (8/20) 5:23 AM AKDT (8/20)
Length of Visible Light 16h 26m
Length of Day
14h 55m
Full, 100% of the Moon is Illuminated
Aug 20
Full
Aug 20
Full
Aug 28
Last Quarter
Sep 5
New
Sep 12
First Quarter

Hourly Weather History & Observations

Time (AKDT) Temp. Dew Point Humidity Pressure Visibility Wind Dir Wind Speed Gust Speed Precip Events Conditions
12:56 AM 53.6 °F 51.8 °F 94% 29.98 in 10.0 mi Calm Calm - N/A   Overcast
1:56 AM 52.9 °F 52.0 °F 97% 29.99 in 10.0 mi Calm Calm - N/A   Mostly Cloudy
2:56 AM 52.0 °F 52.0 °F 100% 30.00 in 10.0 mi Calm Calm - N/A   Overcast
3:56 AM 52.0 °F 52.0 °F 100% 30.01 in 10.0 mi Calm Calm - N/A   Overcast
4:56 AM 52.0 °F 52.0 °F 100% 30.02 in 10.0 mi Calm Calm - N/A   Overcast
5:56 AM 52.0 °F 52.0 °F 100% 30.03 in 10.0 mi Calm Calm - N/A   Overcast
6:56 AM 53.6 °F 51.8 °F 94% 30.04 in 10.0 mi Calm Calm - N/A   Overcast
7:56 AM 54.0 °F 52.9 °F 96% 30.05 in 10.0 mi Calm Calm - N/A   Overcast
8:56 AM 55.9 °F 54.9 °F 96% 30.06 in 10.0 mi Calm Calm - N/A   Overcast
9:56 AM 59.0 °F 52.9 °F 80% 30.07 in 10.0 mi Calm Calm - N/A   Overcast
10:56 AM 59.9 °F 52.0 °F 75% 30.09 in 10.0 mi Calm Calm - N/A   Overcast
11:56 AM 61.0 °F 52.9 °F 75% 30.10 in 10.0 mi East 5.8 mph - N/A   Overcast
12:56 PM 60.8 °F 53.6 °F 77% 30.10 in 10.0 mi Variable 3.5 mph - N/A   Overcast
1:56 PM 57.9 °F 54.0 °F 87% 30.12 in 10.0 mi SE 5.8 mph - N/A   Overcast
2:56 PM 59.0 °F 52.9 °F 80% 30.13 in 10.0 mi ESE 5.8 mph - N/A   Mostly Cloudy
3:56 PM 59.0 °F 53.6 °F 82% 30.12 in 10.0 mi ESE 6.9 mph - N/A   Mostly Cloudy
4:56 PM 57.9 °F 54.0 °F 87% 30.13 in 10.0 mi ESE 5.8 mph - N/A   Overcast
5:56 PM 56.8 °F 54.9 °F 93% 30.12 in 10.0 mi Calm Calm - 0.01 in   Overcast
6:56 PM 57.2 °F 55.4 °F 94% 30.11 in 10.0 mi Calm Calm - N/A   Mostly Cloudy
7:56 PM 56.8 °F 55.9 °F 97% 30.12 in 10.0 mi Calm Calm - N/A   Scattered Clouds
8:56 PM 52.9 °F 52.9 °F 100% 30.12 in 7.0 mi East 3.5 mph - 0.00 in   Scattered Clouds
9:56 PM 51.8 °F 51.8 °F 100% 30.12 in 7.0 mi East 3.5 mph - N/A   Scattered Clouds
10:56 PM 48.9 °F 48.9 °F 100% 30.14 in 7.0 mi Calm Calm - N/A   Partly Cloudy
11:56 PM 48.9 °F 48.9 °F 100% 30.14 in 9.0 mi SE 3.5 mph - N/A   Overcast